KF6ILA Weather Reports


time (UTC)temp
C
wind
direction
speed
KPH
gust
KPH
rain 1hr
cm
rain 24hr
cm
rain mn
cm
humidity
%
barometer
mb
20260508035953 16 253 19.3 30.6 0.00 0.00 0.00 54 1015.8
20260508035457 16 255 22.5 32.2 0.00 0.00 0.00 55 1015.9
20260508034005 16 269 19.3 33.8 0.00 0.00 0.00 56 1015.6
20260508032017 16 263 22.5 33.8 0.00 0.00 0.00 60 1015.3
20260508031023 16 262 17.7 27.4 0.00 0.00 0.00 63 1015.3
20260508030526 16 256 16.1 27.4 0.00 0.00 0.00 64 1015.2
20260508025532 16 261 17.7 27.4 0.00 0.00 0.00 62 1015.1
20260508024538 16 265 16.1 29.0 0.00 0.00 0.00 65 1015.0
20260508024041 16 258 16.1 29.0 0.00 0.00 0.00 66 1015.0
20260508023047 17 258 19.3 33.8 0.00 0.00 0.00 65 1015.0
20260508022053 17 259 20.9 30.6 0.00 0.00 0.00 64 1014.9
20260508015608 18 261 22.5 33.8 0.00 0.00 0.00 64 1014.8
20260508015111 18 258 17.7 33.8 0.00 0.00 0.00 68 1014.9
20260508014614 18 255 22.5 32.2 0.00 0.00 0.00 68 1014.9
20260508014117 18 262 19.3 30.6 0.00 0.00 0.00 63 1015.0
20260508012626 19 260 19.3 30.6 0.00 0.00 0.00 66 1015.0
20260508012129 19 275 20.9 29.0 0.00 0.00 0.00 63 1014.9
20260508010141 20 276 19.3 29.0 0.00 0.00 0.00 65 1015.1
20260508004650 20 272 22.5 32.2 0.00 0.00 0.00 61 1015.0
20260508004153 21 260 22.5 32.2 0.00 0.00 0.00 61 1015.1
20260508001708 21 284 14.5 32.2 0.00 0.00 0.00 57 1015.0
20260507234726 22 268 19.3 32.2 0.00 0.00 0.00 51 1015.3
20260507230750 22 275 19.3 29.0 0.00 0.00 0.00 52 2015.3
20260507223808 22 285 20.9 32.2 0.00 0.00 0.00 51 1015.3
20260507223311 22 265 16.1 25.7 0.00 0.00 0.00 51 1015.5
20260507221820 22 277 14.5 30.6 0.00 0.00 0.00 52 1015.5
20260507220329 22 282 17.7 29.0 0.00 0.00 0.00 50 1015.9
20260507215832 22 277 16.1 27.4 0.00 0.00 0.00 50 1015.9
20260507212850 22 270 16.1 32.2 0.00 0.00 0.00 50 1016.2
20260507204914 23 280 17.7 25.7 0.00 0.00 0.00 47 1015.8
20260507204417 23 264 14.5 25.7 0.00 0.00 0.00 45 1015.8
20260507194453 26 218 6.4 20.9 0.00 0.00 0.00 27 1016.4
20260507193956 26 116 6.4 22.5 0.00 0.00 0.00 31 1016.4
20260507193459 26 96 9.7 24.1 0.00 0.00 0.00 27 1016.6
20260507193002 26 91 3.2 24.1 0.00 0.00 0.00 24 1016.6
20260507192506 26 116 9.7 32.2 0.00 0.00 0.00 25 1016.6
20260507192008 26 136 11.3 32.2 0.00 0.00 0.00 28 1016.5
20260507191512 26 111 14.5 33.8 0.00 0.00 0.00 28 1016.5
20260507191014 26 142 11.3 33.8 0.00 0.00 0.00 27 1016.6
20260507190517 26 116 16.1 29.0 0.00 0.00 0.00 29 1016.7
20260507190020 26 103 6.4 30.6 0.00 0.00 0.00 28 1016.8
20260507185525 26 121 20.9 30.6 0.00 0.00 0.00 27 1016.8
20260507185026 26 103 16.1 29.0 0.00 0.00 0.00 31 1016.8
20260507184530 26 113 11.3 24.1 0.00 0.00 0.00 28 1016.8
20260507184032 26 128 14.5 24.1 0.00 0.00 0.00 30 1016.8
20260507183536 25 103 14.5 30.6 0.00 0.00 0.00 32 1017.0
20260507183038 26 69 12.9 33.8 0.00 0.00 0.00 30 1017.0
20260507182542 26 105 20.9 33.8 0.00 0.00 0.00 30 1017.1
20260507182044 26 109 19.3 25.7 0.00 0.00 0.00 31 1017.3
20260507181548 26 102 12.9 24.1 0.00 0.00 0.00 30 1017.3
20260507181051 25 97 16.1 25.7 0.00 0.00 0.00 30 1017.3
20260507180554 25 86 9.7 25.7 0.00 0.00 0.00 32 1017.3
20260507180056 25 97 11.3 24.1 0.00 0.00 0.00 32 1017.4
20260507175559 25 41 4.8 29.0 0.00 0.00 0.00 29 1017.4
20260507175102 25 92 17.7 33.8 0.00 0.00 0.00 30 1017.5
20260507174605 25 102 22.5 33.8 0.00 0.00 0.00 30 1016.6
20260507174108 25 75 11.3 37.0 0.00 0.00 0.00 31 1016.6
20260507173611 25 83 17.7 37.0 0.00 0.00 0.00 31 1016.6
20260507173114 25 59 14.5 29.0 0.00 0.00 0.00 30 1016.6
20260507172617 25 95 12.9 38.6 0.00 0.00 0.00 33 1016.7
20260507172120 25 109 20.9 38.6 0.00 0.00 0.00 30 1016.7
20260507171623 25 101 9.7 33.8 0.00 0.00 0.00 32 1016.7
20260507171126 25 91 19.3 33.8 0.00 0.00 0.00 32 1016.7
20260507170629 25 76 8.0 24.1 0.00 0.00 0.00 33 1016.7
20260507170132 25 95 16.1 24.1 0.00 0.00 0.00 32 1016.8
20260507165636 24 100 12.9 24.1 0.00 0.00 0.00 33 1016.8
20260507165139 24 94 11.3 19.3 0.00 0.00 0.00 33 1016.8
20260507164641 24 81 11.3 19.3 0.00 0.00 0.00 34 1016.9
20260507164144 24 81 9.7 20.9 0.00 0.00 0.00 34 1016.9
20260507163648 24 87 11.3 20.9 0.00 0.00 0.00 33 1017.0
20260507163150 24 94 9.7 17.7 0.00 0.00 0.00 34 1016.9
20260507162653 24 91 8.0 17.7 0.00 0.00 0.00 33 1017.1
20260507162156 23 73 4.8 11.3 0.00 0.00 0.00 35 1017.1
20260507161700 23 80 6.4 19.3 0.00 0.00 0.00 34 1017.0
20260507161202 23 96 9.7 19.3 0.00 0.00 0.00 36 1017.1
20260507160705 23 66 9.7 14.5 0.00 0.00 0.00 34 1017.1
20260507154221 22 100 4.8 12.9 0.00 0.00 0.00 38 1017.1
20260507153227 22 96 1.6 11.3 0.00 0.00 0.00 39 1017.2
20260507152233 22 58 6.4 9.7 0.00 0.00 0.00 37 1017.1
20260507151736 22 56 6.4 11.3 0.00 0.00 0.00 37 1017.2
20260507150742 21 61 6.4 9.7 0.00 0.00 0.00 41 1016.3
20260507150244 21 51 4.8 8.0 0.00 0.00 0.00 40 1016.3
20260507145747 21 79 1.6 4.8 0.00 0.00 0.00 43 1016.3
20260507145250 20 0 0.0 8.0 0.00 0.00 0.00 42 1016.3
20260507144753 19 60 3.2 8.0 0.00 0.00 0.00 48 1016.3
20260507134830 15 0 0.0 1.6 0.00 0.00 0.00 47 1016.4
20260507134333 14 0 0.0 1.6 0.00 0.00 0.00 46 1016.5
20260507133339 13 0 0.0 3.2 0.00 0.00 0.00 46 1016.4
20260507131351 13 0 0.0 3.2 0.00 0.00 0.00 48 1016.2
20260507125403 13 0 0.0 4.8 0.00 0.00 0.00 51 1016.0
20260507124906 13 227 3.2 6.4 0.00 0.00 0.00 50 1016.0
20260507123912 13 236 3.2 6.4 0.00 0.00 0.00 49 1016.0
20260507122918 13 0 0.0 0.0 0.00 0.00 0.00 49 1015.9
20260507121427 14 0 0.0 0.0 0.00 0.00 0.00 48 1015.9
20260507115439 14 0 0.0 0.0 0.00 0.00 0.00 48 1016.0
20260507114445 14 0 0.0 0.0 0.00 0.00 0.00 47 1015.2
20260507113948 15 0 0.0 0.0 0.00 0.00 0.00 47 1015.2
20260507112457 14 0 0.0 4.8 0.00 0.00 0.00 49 1015.3
20260507112000 14 311 1.6 3.2 0.00 0.00 0.00 49 1015.4
20260507111006 14 311 1.6 3.2 0.00 0.00 0.00 50 1015.3
20260507110012 13 304 1.6 6.4 0.00 0.00 0.00 51 1015.4
20260507105018 13 253 4.8 8.0 0.00 0.00 0.00 52 1015.4
20260507104521 13 0 0.0 4.8 0.00 0.00 0.00 51 1015.4
20260507103030 13 0 0.0 0.0 0.00 0.00 0.00 53 1015.4
20260507102533 13 0 0.0 0.0 0.00 0.00 0.00 53 1015.5
20260507102036 13 0 0.0 1.6 0.00 0.00 0.00 54 1015.5
20260507101042 13 0 0.0 3.2 0.00 0.00 0.00 55 1015.6
20260507100048 13 0 0.0 1.6 0.00 0.00 0.00 56 1015.6
20260507095551 13 0 0.0 3.2 0.00 0.00 0.00 55 1015.7
20260507093603 12 0 0.0 4.8 0.00 0.00 0.00 60 1015.9
20260507093106 12 0 0.0 4.8 0.00 0.00 0.00 61 1016.1
20260507092609 12 0 0.0 6.4 0.00 0.00 0.00 61 1016.0
20260507091118 13 323 4.8 9.7 0.00 0.00 0.00 61 1016.1
20260507090621 13 294 4.8 9.7 0.00 0.00 0.00 61 1016.2
20260507085627 13 291 4.8 8.0 0.00 0.00 0.00 60 1016.3
20260507085130 13 294 1.6 8.0 0.00 0.00 0.00 60 1016.4
20260507084633 13 296 3.2 9.7 0.00 0.00 0.00 60 1016.5
20260507084136 13 293 6.4 9.7 0.00 0.00 0.00 60 1016.5
20260507083639 13 303 4.8 11.3 0.00 0.00 0.00 60 1016.5
20260507083142 13 298 6.4 11.3 0.00 0.00 0.00 59 1016.5
20260507081651 13 292 6.4 11.3 0.00 0.00 0.00 58 1016.5
20260507081154 13 284 8.0 11.3 0.00 0.00 0.00 58 1016.6
20260507075703 13 288 6.4 14.5 0.00 0.00 0.00 59 1016.7
20260507075206 13 281 8.0 14.5 0.00 0.00 0.00 59 1016.7
20260507073715 13 298 6.4 14.5 0.00 0.00 0.00 61 1016.7
20260507072721 13 295 6.4 12.9 0.00 0.00 0.00 62 1016.6
20260507071727 13 287 8.0 12.9 0.00 0.00 0.00 63 1016.9
20260507070733 13 284 9.7 14.5 0.00 0.00 0.00 63 1016.9
20260507070236 13 288 9.7 16.1 0.00 0.00 0.00 64 1017.0
20260507065739 13 286 12.9 16.1 0.00 0.00 0.00 64 1016.9
20260507065242 13 294 8.0 16.1 0.00 0.00 0.00 64 1017.0
20260507064817 13 290 11.3 16.1 0.00 0.00 0.00 64 1017.0
20260507064745 13 290 11.3 16.1 0.00 0.00 0.00 64 1017.0
20260507064248 13 290 11.3 16.1 0.00 0.00 0.00 65 1017.1
20260507063751 13 284 9.7 14.5 0.00 0.00 0.00 65 1017.1
20260507063254 13 282 9.7 14.5 0.00 0.00 0.00 65 1016.4
20260507062757 13 282 9.7 14.5 0.00 0.00 0.00 65 1016.4
20260507062300 13 286 9.7 14.5 0.00 0.00 0.00 65 1016.3
20260507061803 13 288 9.7 14.5 0.00 0.00 0.00 64 1016.3
20260507060809 13 294 9.7 14.5 0.00 0.00 0.00 65 1016.3
20260507060312 13 292 8.0 12.9 0.00 0.00 0.00 65 1016.4
20260507055318 13 282 6.4 11.3 0.00 0.00 0.00 65 1016.6
20260507054821 13 286 4.8 14.5 0.00 0.00 0.00 65 1016.5
20260507054324 13 284 9.7 14.5 0.00 0.00 0.00 66 1016.4
20260507053827 13 286 9.7 14.5 0.00 0.00 0.00 66 1016.4
20260507051342 13 284 9.7 14.5 0.00 0.00 0.00 69 1016.6
20260507045851 13 283 9.7 12.9 0.00 0.00 0.00 72 1016.6
20260507045354 13 283 8.0 12.9 0.00 0.00 0.00 72 1016.6
20260507044857 13 282 9.7 12.9 0.00 0.00 0.00 72 1016.6
20260507043903 13 289 9.7 14.5 0.00 0.00 0.00 72 1016.6
20260507043406 13 290 8.0 14.5 0.00 0.00 0.00 72 1016.6